TimeEST,TemperatureF,Dew PointF,Humidity,Sea Level PressureIn,VisibilityMPH,Wind Direction,Wind SpeedMPH,Gust SpeedMPH,PrecipitationIn,Events,Conditions,WindDirDegrees,DateUTC
12:25 AM,51.8,48.2,88,30.10,2.5,West,8.1,-,N/A,,Overcast,280,2013-01-12 05:25:00
12:40 AM,51.8,48.2,88,30.10,3.0,West,6.9,-,N/A,,Overcast,270,2013-01-12 05:40:00
12:54 AM,51.1,48.0,89,30.11,5.0,West,9.2,-,N/A,,Overcast,280,2013-01-12 05:54:00
1:54 AM,48.9,46.0,90,30.12,5.0,West,8.1,-,N/A,,Overcast,280,2013-01-12 06:54:00
2:54 AM,48.0,45.0,89,30.13,2.5,West,5.8,-,N/A,,Overcast,280,2013-01-12 07:54:00
3:35 AM,48.2,44.6,87,30.12,1.5,WNW,5.8,-,N/A,,Overcast,290,2013-01-12 08:35:00
3:54 AM,46.9,45.0,93,30.12,1.2,NW,5.8,-,N/A,,Overcast,310,2013-01-12 08:54:00
4:40 AM,46.4,44.6,93,30.11,0.5,WNW,4.6,-,N/A,Fog,Fog,290,2013-01-12 09:40:00
4:54 AM,46.0,44.1,93,30.11,0.8,NNW,5.8,-,N/A,,Mist,330,2013-01-12 09:54:00
5:54 AM,46.0,43.0,89,30.13,0.2,WNW,4.6,-,N/A,Fog,Fog,300,2013-01-12 10:54:00
6:11 AM,46.4,42.8,87,30.13,0.8,NW,5.8,-,N/A,,Mist,320,2013-01-12 11:11:00
6:54 AM,46.0,43.0,89,30.15,0.5,NW,3.5,-,N/A,Fog,Fog,310,2013-01-12 11:54:00
7:06 AM,46.4,42.8,87,30.15,0.2,West,3.5,-,N/A,Fog,Fog,280,2013-01-12 12:06:00
7:54 AM,46.0,43.0,89,30.16,0.2,Calm,Calm,-,N/A,Fog,Fog,0,2013-01-12 12:54:00
8:21 AM,46.4,42.8,87,30.16,1.0,Calm,Calm,-,N/A,,Overcast,0,2013-01-12 13:21:00
8:50 AM,46.4,44.6,93,30.16,0.5,Calm,Calm,-,N/A,Fog,Fog,0,2013-01-12 13:50:00
8:54 AM,46.0,44.1,93,30.17,0.8,Calm,Calm,-,N/A,,Overcast,0,2013-01-12 13:54:00
9:15 AM,46.4,44.6,93,30.16,0.2,Calm,Calm,-,N/A,Fog,Fog,0,2013-01-12 14:15:00
9:27 AM,46.4,44.6,93,30.16,1.0,Calm,Calm,-,N/A,,Overcast,0,2013-01-12 14:27:00
9:49 AM,48.2,44.6,87,30.17,2.5,North,3.5,-,N/A,,Overcast,10,2013-01-12 14:49:00
9:54 AM,48.0,44.1,86,30.17,3.0,North,3.5,-,N/A,,Overcast,360,2013-01-12 14:54:00
10:54 AM,50.0,45.0,83,30.16,4.0,Calm,Calm,-,N/A,,Haze,0,2013-01-12 15:54:00
11:09 AM,51.8,46.4,82,30.15,5.0,Calm,Calm,-,N/A,,Haze,0,2013-01-12 16:09:00
11:54 AM,54.0,46.9,77,30.14,6.0,NW,3.5,-,N/A,,Haze,320,2013-01-12 16:54:00
12:54 PM,57.0,46.9,69,30.14,7.0,Variable,3.5,-,N/A,,Clear,0,2013-01-12 17:54:00
1:54 PM,59.0,48.0,67,30.14,9.0,WSW,3.5,-,N/A,,Scattered Clouds,240,2013-01-12 18:54:00
2:54 PM,61.0,48.9,64,30.13,10.0,Calm,Calm,-,N/A,,Clear,0,2013-01-12 19:54:00
3:54 PM,60.1,48.9,67,30.13,10.0,West,4.6,-,N/A,,Clear,270,2013-01-12 20:54:00
4:54 PM,54.0,48.0,80,30.14,7.0,WSW,5.8,-,N/A,,Clear,250,2013-01-12 21:54:00
5:54 PM,50.0,46.0,86,30.16,6.0,WSW,5.8,-,N/A,,Clear,250,2013-01-12 22:54:00
6:07 PM,50.0,46.4,87,30.16,4.0,West,5.8,-,N/A,,Scattered Clouds,260,2013-01-12 23:07:00
6:13 PM,50.0,46.4,87,30.16,2.5,West,4.6,-,N/A,,Mostly Cloudy,270,2013-01-12 23:13:00
6:22 PM,50.0,46.4,87,30.16,1.0,West,3.5,-,N/A,,Mist,270,2013-01-12 23:22:00
6:29 PM,50.0,46.4,87,30.17,0.8,West,3.5,-,N/A,,Mist,280,2013-01-12 23:29:00
6:54 PM,48.9,46.9,93,30.17,0.5,Calm,Calm,-,N/A,Fog,Fog,0,2013-01-12 23:54:00
7:11 PM,48.2,46.4,93,30.16,0.2,Calm,Calm,-,N/A,Fog,Fog,0,2013-01-13 00:11:00
7:32 PM,48.2,46.4,93,30.16,0.2,Calm,Calm,-,N/A,Fog,Fog,0,2013-01-13 00:32:00
8:54 PM,46.9,44.1,90,30.15,0.2,East,3.5,-,N/A,Fog,Fog,90,2013-01-13 01:54:00
9:46 PM,46.4,44.6,93,30.15,0.2,East,4.6,-,N/A,Fog,Fog,90,2013-01-13 02:46:00
9:54 PM,46.9,44.1,90,30.16,0.2,East,3.5,-,N/A,Fog,Fog,80,2013-01-13 02:54:00
10:42 PM,46.4,44.6,93,30.15,0.2,Calm,Calm,-,N/A,Fog,Fog,0,2013-01-13 03:42:00
10:54 PM,46.0,44.1,93,30.16,0.2,East,3.5,-,N/A,Fog,Fog,100,2013-01-13 03:54:00
11:54 PM,46.0,43.0,89,30.15,0.2,South,4.6,-,N/A,Fog,Fog,170,2013-01-13 04:54:00